TimeEST,TemperatureF,Dew PointF,Humidity,Sea Level PressureIn,VisibilityMPH,Wind Direction,Wind SpeedMPH,Gust SpeedMPH,PrecipitationIn,Events,Conditions,WindDirDegrees,DateUTC
12:15 AM,24.8,19.4,80,30.12,10.0,Calm,Calm,-,N/A,,Clear,0,2013-03-04 05:15:00
12:55 AM,24.8,17.6,74,30.13,10.0,Calm,Calm,-,N/A,,Clear,0,2013-03-04 05:55:00
1:15 AM,24.8,17.6,74,30.13,10.0,Calm,Calm,-,N/A,,Clear,0,2013-03-04 06:15:00
1:35 AM,24.8,19.4,80,30.13,10.0,Calm,Calm,-,N/A,,Clear,0,2013-03-04 06:35:00
1:55 AM,24.8,19.4,80,30.13,10.0,SE,3.5,-,N/A,,Clear,130,2013-03-04 06:55:00
2:15 AM,23.0,17.6,80,30.13,10.0,ESE,3.5,-,N/A,,Clear,120,2013-03-04 07:15:00
2:35 AM,24.8,17.6,74,30.13,10.0,Calm,Calm,-,N/A,,Clear,0,2013-03-04 07:35:00
2:55 AM,24.8,17.6,74,30.13,10.0,Calm,Calm,-,N/A,,Clear,0,2013-03-04 07:55:00
3:15 AM,24.8,17.6,74,30.13,10.0,ESE,4.6,-,N/A,,Clear,120,2013-03-04 08:15:00
3:35 AM,23.0,17.6,80,30.13,10.0,ESE,3.5,-,N/A,,Clear,110,2013-03-04 08:35:00
3:55 AM,24.8,19.4,80,30.12,10.0,ENE,3.5,-,N/A,,Clear,70,2013-03-04 08:55:00
4:15 AM,24.8,19.4,80,30.13,10.0,Calm,Calm,-,N/A,,Clear,0,2013-03-04 09:15:00
4:35 AM,24.8,17.6,74,30.13,10.0,Calm,Calm,-,N/A,,Clear,0,2013-03-04 09:35:00
4:55 AM,24.8,19.4,80,30.13,10.0,ESE,3.5,-,N/A,,Clear,110,2013-03-04 09:55:00
5:15 AM,24.8,17.6,74,30.13,10.0,SE,4.6,-,N/A,,Clear,130,2013-03-04 10:15:00
5:35 AM,26.6,17.6,69,30.13,10.0,ESE,6.9,-,N/A,,Clear,120,2013-03-04 10:35:00
5:55 AM,24.8,17.6,74,30.14,10.0,ESE,8.1,-,N/A,,Clear,120,2013-03-04 10:55:00
6:15 AM,24.8,17.6,74,30.14,10.0,ESE,8.1,-,N/A,,Clear,120,2013-03-04 11:15:00
6:55 AM,26.6,17.6,69,30.13,10.0,SE,6.9,-,N/A,,Mostly Cloudy,130,2013-03-04 11:55:00
7:15 AM,26.6,19.4,74,30.13,10.0,ESE,4.6,-,N/A,,Overcast,110,2013-03-04 12:15:00
7:35 AM,26.6,19.4,74,30.12,10.0,ESE,9.2,-,N/A,,Partly Cloudy,120,2013-03-04 12:35:00
7:55 AM,28.4,19.4,69,30.12,10.0,SE,9.2,-,N/A,,Clear,130,2013-03-04 12:55:00
8:15 AM,28.4,19.4,69,30.13,10.0,SE,8.1,-,N/A,,Clear,130,2013-03-04 13:15:00
8:35 AM,28.4,19.4,69,30.12,10.0,SE,8.1,-,N/A,,Clear,130,2013-03-04 13:35:00
8:55 AM,30.2,19.4,64,30.12,10.0,ESE,11.5,-,N/A,,Clear,120,2013-03-04 13:55:00
9:15 AM,30.2,19.4,64,30.12,10.0,SE,10.4,-,N/A,,Mostly Cloudy,130,2013-03-04 14:15:00
9:35 AM,30.2,19.4,64,30.11,10.0,ESE,10.4,-,N/A,,Mostly Cloudy,120,2013-03-04 14:35:00
9:55 AM,32.0,19.4,60,30.11,10.0,SE,11.5,-,N/A,,Partly Cloudy,140,2013-03-04 14:55:00
10:15 AM,32.0,21.2,64,30.11,10.0,SE,9.2,-,N/A,,Clear,130,2013-03-04 15:15:00
10:35 AM,33.8,19.4,56,30.11,10.0,SE,9.2,-,N/A,,Partly Cloudy,130,2013-03-04 15:35:00
10:55 AM,33.8,21.2,60,30.10,10.0,SE,9.2,-,N/A,,Scattered Clouds,130,2013-03-04 15:55:00
11:15 AM,33.8,21.2,60,30.09,10.0,ESE,13.8,-,N/A,,Scattered Clouds,110,2013-03-04 16:15:00
11:35 AM,35.6,21.2,56,30.09,10.0,SE,10.4,-,N/A,,Mostly Cloudy,130,2013-03-04 16:35:00
12:15 PM,37.4,23.0,56,30.07,10.0,SE,16.1,-,N/A,,Partly Cloudy,140,2013-03-04 17:15:00
1:15 PM,37.4,24.8,60,30.02,10.0,ESE,12.7,-,N/A,,Overcast,120,2013-03-04 18:15:00
1:55 PM,39.2,24.8,56,30.00,10.0,ESE,13.8,-,N/A,,Overcast,110,2013-03-04 18:55:00
2:15 PM,41.0,24.8,53,29.98,10.0,ESE,17.3,21.9,N/A,,Overcast,110,2013-03-04 19:15:00
2:35 PM,42.8,24.8,49,29.97,10.0,ESE,19.6,-,N/A,,Overcast,120,2013-03-04 19:35:00
2:55 PM,42.8,26.6,53,29.96,10.0,ESE,13.8,-,N/A,,Overcast,110,2013-03-04 19:55:00
3:15 PM,42.8,26.6,53,29.95,10.0,ESE,15.0,-,N/A,,Mostly Cloudy,110,2013-03-04 20:15:00
3:55 PM,42.8,26.6,53,29.93,10.0,ESE,19.6,-,N/A,,Clear,120,2013-03-04 20:55:00
4:15 PM,42.8,26.6,53,29.92,10.0,ESE,15.0,-,N/A,,Clear,110,2013-03-04 21:15:00
4:35 PM,44.6,26.6,49,29.92,10.0,ESE,17.3,21.9,N/A,,Partly Cloudy,120,2013-03-04 21:35:00
4:55 PM,44.6,26.6,49,29.91,10.0,East,15.0,-,N/A,,Clear,100,2013-03-04 21:55:00
5:15 PM,42.8,26.6,53,29.92,10.0,East,12.7,16.1,N/A,,Mostly Cloudy,100,2013-03-04 22:15:00
5:35 PM,42.8,26.6,53,29.92,10.0,ESE,10.4,-,N/A,,Mostly Cloudy,110,2013-03-04 22:35:00
5:55 PM,42.8,26.6,53,29.92,10.0,East,10.4,-,N/A,,Mostly Cloudy,100,2013-03-04 22:55:00
6:35 PM,41.0,24.8,53,29.93,10.0,ESE,10.4,-,N/A,,Overcast,120,2013-03-04 23:35:00
6:55 PM,41.0,24.8,53,29.94,10.0,East,6.9,-,N/A,,Overcast,100,2013-03-04 23:55:00
7:15 PM,41.0,24.8,53,29.94,10.0,East,9.2,-,N/A,,Overcast,100,2013-03-05 00:15:00
7:55 PM,41.0,24.8,53,29.93,10.0,East,9.2,-,N/A,,Overcast,100,2013-03-05 00:55:00
8:15 PM,41.0,24.8,53,29.93,10.0,East,9.2,-,N/A,,Overcast,90,2013-03-05 01:15:00
8:35 PM,41.0,24.8,53,29.93,10.0,East,10.4,-,N/A,,Overcast,80,2013-03-05 01:35:00
8:55 PM,41.0,24.8,53,29.93,10.0,East,9.2,-,N/A,,Overcast,100,2013-03-05 01:55:00
9:35 PM,42.8,24.8,49,29.93,10.0,East,9.2,-,N/A,,Overcast,100,2013-03-05 02:35:00
9:55 PM,42.8,24.8,49,29.92,10.0,East,10.4,-,N/A,,Overcast,100,2013-03-05 02:55:00
10:15 PM,42.8,24.8,49,29.92,10.0,East,10.4,-,N/A,,Overcast,90,2013-03-05 03:15:00
10:35 PM,42.8,24.8,49,29.91,10.0,East,10.4,-,N/A,,Overcast,90,2013-03-05 03:35:00
10:55 PM,42.8,24.8,49,29.91,10.0,East,10.4,-,N/A,,Overcast,100,2013-03-05 03:55:00
11:15 PM,42.8,24.8,49,29.90,10.0,East,10.4,-,N/A,,Overcast,100,2013-03-05 04:15:00
11:35 PM,42.8,24.8,49,29.90,10.0,East,10.4,-,N/A,,Overcast,90,2013-03-05 04:35:00
11:55 PM,42.8,24.8,49,29.89,10.0,East,8.1,-,N/A,,Overcast,100,2013-03-05 04:55:00